Location: Étang Rond
(42.7927°N, 1.0661°E)
Time: 00:55:33
(UTC+00:00)

Cosmos 2219 Rocket - Pass Details

Date: 08 November 2025
Orbit: 825 x 847 km, 71.0° (Epoch: 07 December)

Event Time Altitude Azimuth Distance (km) Brightness Sun altitude
Exits shadow 02:55:16 19° 49° (NE) 1,886 4.4 -41.0°
Drops below altitude 10° 02:57:02 10° 39° (NE) 2,471 5.1 -40.7°
Sets 02:59:37 0° 32° (NNE) 3,412 5.9 -40.2°
